This demonstration page uses our WeatherBlox Daily Observations layout. Learn more.

Left ArrowRight Arrow

34.74481, -87.66753

Hourly Observations for February 22, 2021

Temp ( °F °C ) Dew Point ( °F °C ) Humidity (%) Winds ( mph kmh ) Pressure ( in mb ) Visibility ( mi km ) Precip ( " mm )
12:53 am 00:53 Cloudy with Light Rain 53 11.7 38 3.3 57 57 S 7 11 30.05 1018 10 16 0.00 0.00
1:53 am 01:53 Cloudy 53 11.7 40 4.4 61 61 S 13 20 30.04 1017 10 16 0.00 0.00
2:53 am 02:53 Cloudy 52 11.1 43 6.1 72 72 SSW 12 19 30.01 1016 10 16 0.01 0.25
3:53 am 03:53 Cloudy with Light Rain 53 11.7 45 7.2 74 74 WNW 23 37 30.04 1017 7 11 0.02 0.51
3:57 am 03:57 Cloudy with Heavy Rain 52 11.1 44 6.7 75 75 WNW 20 31 30.06 1018 4 6 0.03 0.76
4:00 am 04:00 Cloudy with Heavy Rain 51 10.6 44 6.7 77 77 WNW 21 33 30.06 1018 3 5 0.04 1.02
4:23 am 04:23 Cloudy with Rain 50 10 44 6.7 80 80 W 12 19 30.06 1018 5 8 0.09 2.29
4:53 am 04:53 Cloudy with Light Rain 49 9.4 44 6.7 83 83 W 8 13 30.04 1017 5 8 0.11 2.79
5:44 am 05:44 Cloudy with Rain 49 9.4 44 6.7 83 83 WNW 6 9 30.07 1018 4 6 0.06 1.52
5:53 am 05:53 Cloudy with Light Rain 49 9.4 44 6.7 83 83 W 8 13 30.06 1018 6 10 0.06 1.52
6:01 am 06:01 Cloudy with Light Rain 49 9.4 44 6.7 83 83 WNW 10 17 30.08 1019 7 11 0.00 0.00
6:35 am 06:35 Cloudy with Rain 48 8.9 42 5.6 80 80 WNW 15 24 30.11 1020 5 8 0.02 0.51
6:46 am 06:46 Cloudy with Light Rain 48 8.9 41 5 77 77 WNW 8 13 30.10 1019 5 8 0.03 0.76
6:53 am 06:53 Cloudy 47 8.3 41 5 80 80 WNW 7 11 30.09 1019 9 14 0.03 0.76
7:53 am 07:53 Mostly Cloudy 48 8.9 42 5.6 80 80 WNW 8 13 30.11 1020 8 13 0.00 0.00
8:00 am 08:00 Mostly Cloudy 48 8.9 42 5.6 80 80 WNW 8 13 30.13 1020 8 13 0.00 0.00
8:30 am 08:30 Mostly Cloudy 48 8.9 41 5 77 77 WNW 10 17 30.14 1021 9 14 0.00 0.00
8:53 am 08:53 Partly Cloudy 50 10 40 4.4 68 68 WNW 12 19 30.13 1020 10 16 0.00 0.00
9:53 am 09:53 Mostly Sunny 50 10 40 4.4 68 68 W 14 22 30.14 1021 10 16 0.00 0.00
10:53 am 10:53 Sunny 52 11.1 37 2.8 57 57 W 14 22 30.14 1021 10 16 0.00 0.00
11:53 am 11:53 Sunny 55 12.8 35 1.7 47 47 WNW 10 17 30.13 1020 10 16 0.00 0.00
12:53 pm 12:53 Sunny 56 13.3 33 0.6 42 42 W 14 22 30.11 1020 10 16 0.00 0.00
1:53 pm 13:53 Sunny 57 13.9 29 -1.7 34 34 NW 8 13 30.09 1019 10 16 0.00 0.00
2:53 pm 14:53 Sunny 58 14.4 27 -2.8 31 31 NW 13 20 30.09 1019 10 16 0.00 0.00
3:53 pm 15:53 Sunny 58 14.4 27 -2.8 31 31 WNW 13 20 30.09 1019 10 16 0.00 0.00
4:53 pm 16:53 Sunny 56 13.3 25 -3.9 30 30 WNW 10 17 30.08 1019 10 16 0.00 0.00
5:53 pm 17:53 Clear 52 11.1 24 -4.4 34 34 NW 5 7 30.09 1019 10 16 0.00 0.00
6:53 pm 18:53 Clear 51 10.6 24 -4.4 35 35 W 3 6 30.10 1019 10 16 0.00 0.00
7:53 pm 19:53 Clear 46 7.8 26 -3.3 46 46 Calm 30.10 1019 10 16 0.00 0.00
8:53 pm 20:53 Clear 41 5 32 0 70 70 S 5 7 30.09 1019 10 16 0.00 0.00
9:53 pm 21:53 Clear 41 5 30 -1.1 65 65 Calm 30.10 1019 10 16 0.00 0.00
10:53 pm 22:53 Clear 39 3.9 28 -2.2 65 65 Calm 30.10 1019 10 16 0.00 0.00
11:53 pm 23:53 Clear 38 3.3 26 -3.3 62 62 Calm 30.09 1019 10 16 0.00 0.00

Powered by AerisWeather